{"data":{"norad_id":53255,"epoch":"2026-09-19T23:46:56.421120Z","epoch_age_seconds":119265,"freshness":"FRESH","line1":"1 53255U 22086P   26262.99093080  .00000707  00000+0  39758-4 0  9993","line2":"2 53255  53.1605  37.2059 0001115  81.8110 278.3015 15.26518695230453","mean_motion":15.26518695,"eccentricity":0.0001115,"inclination_deg":53.1605,"raan_deg":37.2059,"arg_perigee_deg":81.811,"mean_anomaly_deg":278.3015,"bstar":3.9758e-5,"rev_number":23045,"period_min":94.332287230848,"perigee_km":485.4634892761,"apogee_km":486.99424286424,"semimajor_km":6864.3658660702,"source":"CELESTRAK","updated_at":"2026-09-20T09:00:40.215005Z"}}